Mobridge, SD

3:31 AM CDT on October 14, 2019 (GMT -0500)
Mobridge Municipal

Weather History for KMBG - September, 2019

Change the Weather History Date:

Saturday, September 21, 2019

  Actual Average Record
Temperature  
Mean Temperature 67 °F 58 °F  
Max Temperature 77 °F 71 °F 101 °F (1937)
Min Temperature 56 °F 45 °F 27 °F (1918)
Degree Days  
Heating Degree Days 0    
Month to date heating degree days 31  
Since 1 July heating degree days 53  
Cooling Degree Days 2    
Month to date cooling degree days 75  
Year to date cooling degree days 648  
Growing Degree Days 16 (Base 50)    
Moisture  
Dew Point 57 °F    
Average Humidity 74    
Maximum Humidity 90    
Minimum Humidity 58    
Precipitation  
Precipitation 0.10 in 0.06 in 0.41 in (2006)
Month to date precipitation 3.20 1.08  
Year to date precipitation 23.72 14.99  
Snow  
Snow 0.00 in - T in (1995)
Month to date snowfall 0.0  
Since 1 July snowfall 0.0  
Snow Depth 0.00 in    
Sea Level Pressure  
Sea Level Pressure 29.71 in    
Wind  
Wind Speed 11 mph (West)    
Max Wind Speed 29 mph    
Max Gust Speed 43 mph    
Visibility 9 miles    
Events Rain , Thunderstorm    
T = Trace of Precipitation, MM = Missing Value Source: NWS Daily Summary

Daily Weather History Graph

Daily Weather History Graph

Search for Another Location

Airport or City:

Astronomy

Sep. 21, 2019 Rise Set
Actual Time 7:27 AM CDT 7:41 PM CDT
Civil Twilight 6:57 AM CDT 8:11 PM CDT
Nautical Twilight 6:22 AM CDT 8:45 PM CDT
Astronomical Twilight 5:46 AM CDT 9:21 PM CDT
Moon No Moon Rise 2:54 PM CDT (9/21)
Length of Visible Light 13h 13m
Length of Day
12h 14m
Waning Gibbous, 54% of the Moon is Illuminated
Sep 21
Waning Gibbous
Sep 21
Last Quarter
Sep 28
New
Oct 5
First Quarter
Oct 13
Full

Hourly Weather History & Observations

Time (CDT) Temp. Dew Point Humidity Pressure Visibility Wind Dir Wind Speed Gust Speed Precip Events Conditions
12:52 AM 75.9 °F 64.0 °F 67% 29.56 in 10.0 mi South 19.6 mph 35.7 mph N/A   Overcast
1:14 AM 73.0 °F 59.0 °F 61% 29.64 in 10.0 mi WSW 17.3 mph 28.8 mph N/A   Scattered Clouds
1:52 AM 69.1 °F 59.0 °F 70% 29.60 in 10.0 mi West 12.7 mph 21.9 mph N/A Thunderstorm Thunderstorm
2:08 AM 66.9 °F 60.1 °F 79% 29.65 in 9.0 mi West 12.7 mph 19.6 mph 0.00 in Rain Light Rain
2:52 AM 66.0 °F 61.0 °F 84% 29.62 in 9.0 mi West 9.2 mph - 0.00 in Rain Light Rain
3:52 AM 64.0 °F 60.1 °F 87% 29.55 in 10.0 mi ENE 10.4 mph - 0.10 in Rain Light Rain
4:52 AM 63.0 °F 59.0 °F 87% 29.63 in 10.0 mi SE 3.5 mph - 0.00 in   Clear
5:52 AM 60.1 °F 57.9 °F 93% 29.62 in 10.0 mi SSE 4.6 mph - N/A   Clear
6:52 AM 59.0 °F 55.9 °F 90% 29.61 in 3.0 mi SE 4.6 mph - N/A   Clear
6:56 AM 57.9 °F 55.0 °F 90% 29.64 in 1.8 mi SSE 4.6 mph - N/A   Clear
7:04 AM 57.9 °F 55.0 °F 90% 29.66 in 3.0 mi WSW 5.8 mph - N/A   Clear
7:41 AM 62.1 °F 57.9 °F 86% 29.69 in 10.0 mi West 6.9 mph - N/A   Mostly Cloudy
7:52 AM 63.0 °F 59.0 °F 87% 29.65 in 10.0 mi West 6.9 mph - N/A   Mostly Cloudy
8:08 AM 63.0 °F 59.0 °F 87% 29.69 in 10.0 mi West 6.9 mph - N/A   Scattered Clouds
8:52 AM 64.9 °F 60.1 °F 84% 29.66 in 10.0 mi WNW 5.8 mph - N/A   Clear
9:52 AM 68.0 °F 61.0 °F 78% 29.67 in 10.0 mi WSW 6.9 mph - N/A   Clear
10:24 AM 66.0 °F 60.1 °F 81% 29.72 in 10.0 mi West 15.0 mph - N/A   Mostly Cloudy
10:52 AM 64.0 °F 59.0 °F 84% 29.70 in 10.0 mi West 16.1 mph 24.2 mph N/A   Overcast
11:45 AM 66.9 °F 59.0 °F 76% 29.72 in 10.0 mi West 16.1 mph 21.9 mph N/A   Overcast
11:52 AM 66.9 °F 57.9 °F 73% 29.69 in 10.0 mi West 18.4 mph 23.0 mph N/A   Mostly Cloudy
12:52 PM 68.0 °F 57.9 °F 70% 29.70 in 10.0 mi West 13.8 mph 24.2 mph N/A   Overcast
1:00 PM 68.0 °F 57.0 °F 68% 29.73 in 10.0 mi West 16.1 mph 26.5 mph N/A   Overcast
1:35 PM 66.0 °F 55.0 °F 68% 29.74 in 10.0 mi West 20.7 mph 28.8 mph N/A   Overcast
1:52 PM 66.0 °F 54.0 °F 65% 29.73 in 10.0 mi WNW 18.4 mph 29.9 mph N/A   Overcast
2:25 PM 64.0 °F 53.1 °F 67% 29.76 in 10.0 mi WNW 19.6 mph 31.1 mph N/A   Overcast
2:52 PM 64.9 °F 52.0 °F 63% 29.75 in 10.0 mi WNW 16.1 mph 27.6 mph N/A   Overcast
3:52 PM 66.9 °F 53.1 °F 61% 29.75 in 10.0 mi NW 13.8 mph 27.6 mph N/A   Scattered Clouds
4:52 PM 68.0 °F 54.0 °F 61% 29.76 in 10.0 mi WNW 15.0 mph - N/A   Mostly Cloudy
6:52 PM 66.9 °F 52.0 °F 59% 29.80 in 10.0 mi West 9.2 mph - N/A   Mostly Cloudy
7:52 PM 64.0 °F 52.0 °F 65% 29.82 in 10.0 mi WNW 12.7 mph - N/A   Overcast
8:52 PM 60.1 °F 52.0 °F 75% 29.85 in 10.0 mi WNW 10.4 mph - N/A   Mostly Cloudy
9:52 PM 59.0 °F 51.1 °F 75% 29.88 in 10.0 mi WNW 13.8 mph - N/A   Clear
10:52 PM 57.9 °F 51.1 °F 78% 29.90 in 10.0 mi NW 13.8 mph - N/A   Clear
11:52 PM 57.0 °F 50.0 °F 77% 29.88 in 10.0 mi NW 13.8 mph - N/A   Clear